Regional Weather Roundup
Issued by NWS Wakefield, VA

Home | Current Version | Previous Version | Graphics & Text | Print | Product List | Glossary On
Versions: 1 2 3 4 5 6 7 8 9 10 11 12 13 14 15 16 17 18 19 20 21 22 23 24 25 26 27 28 29 30 31 32 33 34 35 36 37 38 39 40 41 42 43 44 45 46 47 48 49 50
256
ASUS41 KAKQ 102215
RWRAKQ

REGIONAL WEATHER ROUNDUP
NATIONAL WEATHER SERVICE WAKEFIELD VA
500 PM EST WED FEB 10 2016

Note: "fair" indicates few or no clouds below 12,000 feet with no
significant weather and/or obstructions to visibility. * = Denotes
station may not report precipitation (e.g., rain,snow,etc.),
thunder or fog.

VAZ042-051-052>054-056-102300-
NORTHERN VIRGINIA

CITY           SKY/WX    TMP DP  RH WIND       PRES   REMARKS
WASH NATIONAL  MOCLDY    35  14  42 NW15      29.82R
DULLES         CLOUDY    30  12  47 NW22G29   29.83R WCI  17
FORT BELVOIR   LGT RAIN  36  14  41 NW9       29.82R
QUANTICO       FLURRIES  37  17  44 N13G24    29.83R
FREDERICKSBRG* CLOUDY    37  17  45 NW14      29.81R
STAFFORD*      CLOUDY    35  14  42 NW15G22   29.85R
WARRENTON      CLOUDY    33  19  54 W16G22    29.83R WCI  23
CULPEPER*      CLOUDY    31  12  45 NW12G18   29.85R WCI  21
MANASSAS*      CLOUDY    32  19  59 N15G24    29.83R WCI  22
LEESBURG*      CLOUDY    30  18  59 NW24G31   29.85R WCI  16
WINCHESTER     CLOUDY    27  14  59 W17       29.86R WCI  14
FRONT ROYAL*   CLOUDY    27   9  46 W13G18    29.85R WCI  16
LURAY*         CLOUDY    27   5  39 W16G23    29.86R WCI  14
$$

VAZ048-049-060>072-079>083-102300-
CENTRAL AND SOUTH CENTRAL VIRGINIA

CITY           SKY/WX    TMP DP  RH WIND       PRES   REMARKS
RICHMOND       MOCLDY    38  14  37 W22       29.82R
CHESTERFIELD*  MOCLDY    37   9  30 W15G22    29.85R
PETERSBURG*    CLOUDY    38   7  27 W14       29.85R
HANOVER        CLOUDY    37  14  38 W15G22    29.83R
TAPPAHANNOCK*  CLOUDY    39  15  37 W5        29.81R
QUINTON*       CLOUDY    38  15  38 W9        29.81R
CHARLOTTSVILLE CLOUDY    31   6  35 W10G21    29.84R WCI  22
GORDONSVILLE*  CLOUDY    32   9  37 W7        29.83R
ORANGE*        CLOUDY    32  10  40 SW18G24   29.85R WCI  20
LOUISA*        CLOUDY    34  10  37 W10       29.82R
BUMPASS*       CLOUDY    34  12  41 W9        29.82R
FARMVILLE*     CLOUDY    32   8  35 W9G20     29.87R
CREWE*         CLOUDY    33  11  40 W8G23     29.86R
FORT PICKETT*  CLOUDY    33  10  38 W16G22    29.85R WCI  23
CHASE CITY*    CLOUDY    32   8  35 W9G18     29.88R
CLARKSVILLE*   CLOUDY    34  12  40 W10G17    29.88R
SOUTH HILL*    CLOUDY    35  14  42 W8G18     29.92R
LAWRENCEVILLE* CLOUDY    36  14  40 W8        29.85R
EMPORIA*       CLOUDY    36  14  41 SW12G21   29.88R
$$

VAZ088>098-102300-
SOUTHEAST VIRGINIA

CITY           SKY/WX    TMP DP  RH WIND       PRES   REMARKS
NORFOLK        FAIR      41  14  33 W12       29.82R
VIRGINIA BEACH MOCLDY    46  16  30 W15       29.82R
NORFOLK NAVAL  FAIR      41  16  36 W13       29.84R
WEST POINT*    CLOUDY    39  16  38 W15       29.83R
SALUDA*        CLOUDY    38  16  40 W5        29.81R
NEWPORT NEWS   MOCLDY    40  17  39 W12       29.82R
LANGLEY AFB    FAIR      39  17  40 W15G21    29.81R
FORT EUSTIS    CLOUDY    40  14  34 W8        29.81R
WILLIAMSBURG*  MOCLDY    43  18  36 W13G22    29.83R
HR EXEC AP*    FAIR      41  16  36 W6        29.84R
FRANKLIN*      MOCLDY    38  15  38 W12       29.85R
US460-WAKEFLD  CLOUDY    40  13  33 W13G22    29.84R
$$

VAZ020-022-025-037-045-102300-
WEST CENTRAL AND SOUTHWEST VIRGINIA

CITY           SKY/WX    TMP DP  RH WIND       PRES   REMARKS
STAUNTON*      MOCLDY    29   6  38 W14G22    29.87R WCI  18
WAYNESBORO*    CLOUDY    24   2  39 NW13G22   29.83R WCI  12
HOT SPRINGS VA CLOUDY    11   4  71 W18G31    29.66R HAZE    WCI  -6
LYNCHBURG      CLOUDY    26   6  42 W6G21     29.90R
DANVILLE       CLOUDY    32   8  36 W14G22    29.93R WCI  22
SOUTH BOSTON*  CLOUDY    32   8  36 W16G25    29.91R WCI  21
MARTINSVILLE   CLOUDY    25   4  39 NW6       29.96R
ROANOKE        MOCLDY    24   9  52 NW10      29.93R WCI  14
BLACKSBURG     CLOUDY    20   9  62 W10G17    29.89R WCI   9
DUBLIN*        CLOUDY    21  10  62 W16       29.88R WCI   7
MARION*        LGT SNOW  18  12  77 W20       29.87R WCI   2
HILLSVILLE*    CLOUDY    18   7  61 W13G28    29.82R WCI   5
RICHLANDS*     CLOUDY    16   4  60 W10G20    29.87S WCI   3
WISE*          CLOUDY    18   3  53 W13G20    29.90R WCI   4
ABINGDON*      CLOUDY    22   6  49 W15G21    29.93S WCI   9
$$

MDZ021>025-VAZ099-100-102300-
SOUTHERN MARYLAND AND THE DELMARVA PENINSULA

CITY           SKY/WX    TMP DP  RH WIND       PRES   REMARKS
PATUXENT RIVER MOCLDY    37  16  42 NW12      29.80R
BAY BRIDGE APT   N/A     34  16  47 W16G23    29.81R WCI  23
LEONARDTOWN    CLOUDY    36  18  48 W6        29.81R
DOVER          CLOUDY    34  20  57 W14       29.78R WCI  25
GEORGETOWN     PTCLDY    36  19  50 NW5       29.79R
EASTON         MOCLDY    36  19  51 NW12      29.83R
CAMBRIDGE      MOCLDY    36  19  51 N6        29.79S
SALISBURY      CLOUDY    37  19  48 W8        29.79R
OCEAN CITY     PTCLDY    36  20  52 NW6       29.80R
WALLOPS ISLAND FAIR      37  20  50 W7        29.81R
ACCOMACK*      MOCLDY    36  21  55 SW3       29.80S
$$

NCZ012>017-030>032-102300-
NORTH CENTRAL AND EASTERN NORTH CAROLINA

CITY           SKY/WX    TMP DP  RH WIND       PRES   REMARKS
ROANOKE RAPIDS CLOUDY    37  18  44 W15G21    29.87R
RALEIGH        MOCLDY    36  12  37 W13G24    29.91R
ELIZABETH CITY MOCLDY    39  19  44 W12       29.85R
AHOSKIE*       CLOUDY    38  17  43 CALM      29.87R
EDENTON*       CLOUDY    41  18  39 W15       29.87R
CURRITUCK*     MOCLDY    41  19  40 W13G18    29.84R
KILL DEVIL HLS CLEAR     40  20  43 W8        29.84R
MANTEO         PTCLDY    39  20  46 W10       29.86R
CAPE HATTERAS  CLEAR     40  22  48 W9        29.87R
TARBORO*       CLOUDY    39  18  41 W6        29.89S
GOLDSBORO      CLOUDY    39  16  38 W15       29.89R
WASHINGTON     CLOUDY    38  18  43 W9        29.89R
GREENVILLE     CLOUDY    39  18  41 W6        29.91R
NEW BERN       CLOUDY    40  17  39 W8        29.91R
WILMINGTON     CLOUDY    40  19  43 W13G25    29.94R
$$

VAZ048-102300-
ELSEWHERE

CITY           SKY/WX    TMP DP  RH WIND       PRES   REMARKS
HARRISBURG PA  CLOUDY    31  14  49 W16       29.78R WCI  20
BALTIMORE      PTCLDY    32  13  45 W14       29.80R WCI  22
ANNAPOLIS      CLEAR     35  16  45 NW10G18   29.80R
ANDREWS AFB    MOCLDY    34  15  44 NW10      29.79R
PHILADELPHIA   MOCLDY    34  15  46 W15       29.78R WCI  24
HENDERSON NC   MOCLDY    35   9  34 W10G18    29.88R
GREENSBORO     MOCLDY    31   6  35 NW20G28   29.92R WCI  19
ROCKY MOUNT    MOCLDY    38  16  40 W12G21    29.89R
$$

VAZ100-102300-
MARINE

STATION/POSITION TIME  TEMP    WIND        PRES    WAVE   SWELL
                       AIR SEA DIR/SP/G            HT/PER HT/PER
                 (UTC) (F)     (DEG/KT/KT) (MB)    (FT/S) (FT/S)
BRANDYWINE LGT   2100   35     310/ 15/ 21 1008.0R
CAPE MAY NJ      2100   35 41  300/ 17/ 20 1007.6R
LEWES DE         2100   36 41  300/ 17/ 19 1007.9R
15NM E FENWICK I 2150   37 43              1008.7R   4/13
OCEAN-CITY-INLET 2100   37 41  300/ 12/ 16 1007.7R
WACHAPREAGUE VA  2100   40 45  250/  6/  8 1009.0R
THOMAS POINT MD  2100   35 39  310/ 14/ 16 1009.3R
GOOSES REEF MD   2200   37 40  330/ 10/ 14 1010.0R   1/ 2
COVE POINT MD    2100   36     280/  9/ 15 1009.2R
SOLOMONS ISLAND  2100   39 41  270/  8/ 11   N/A
BISHOPS HEAD MD  2100   37 40  250/ 13/ 16 1007.8R
PINEY POINT MD   2100          330/  9/  9   N/A
POTOMAC MD       2200   38 40  320/  8/ 10 1008.2R   1/ 2
CAMBRIDGE MD     2100   37 40  290/  7/ 11 1007.8R
LEWISETTA VA     2100   39 41  300/  9/ 11 1008.5R
RAPPAHANNOCK LGT 2100           70/  2/  2 1009.2R
STINGRAY PT      2200   40 42  280/ 12/ 16 1009.2R   1
YORK RVR RNG VA  2100   41     280/ 16/ 20 1008.0R
YORKTOWN VA      2100   40 43  270/ 11/ 16 1008.8R
JAMESTOWN VA     2200   39 44  270/ 12/ 16   N/A     1
DOMINION TERM VA 2100   41     260/ 15/ 18 1009.1R
KIPTOPEKE VA     2100      42  260/ 12/ 13   N/A
CHES BAY BRIDGE  2100   40 42  230/ 13/ 17 1008.9R
CAPE HENRY VA    2100   40     260/ 13/ 17   N/A
CHESAPEAKE LGHT  2100   39     290/ 12/ 14 1010.2R
WILLOUBY STN VA  2100   40     260/ 17/ 18 1009.7R
CAPE HENRY BUOY  2128      44                N/A     3/13   2/13
1ST LANDING BUOY 2200      42                N/A     1/ 3
CAPE CHARLES BUO 2126      43                N/A     3/13   3/13
OFFSHORE WE BUOY 2121      46                N/A     4/12   3/12
64NM E OF VA BCH 2150   39 49  250/ 14/ 17 1010.0R   6/11   5/11
DUCK PIER NC     2100   39     250/ 13/ 18 1009.7R
44100 DUCK FRF   2124      47                N/A     4/13   3/13
44056 DUCK FRF   2111      44                N/A     3/13   3/13
OREGON INLET NC  2100   41 43  260/  9/ 15 1010.4R
HATTERAS NC      2100   40 49  260/ 13/ 16 1010.6R
DIAMOND SHLS NC  2150   42 72  290/ 16/ 21 1011.4R  C1F1C2F2C3F3C4F4C5F5C6F6C7F7C8M1C9!



USA.gov is the U.S. government's official web portal to all federal, state and local government web resources and services.